Climatologie pour Saint-Brevin les Pins
Jour • Résumé pour juillet 5, 2017 Système :  Métrique    Anglais   Mixte
« - 1 jour
+ 1 jour »
Jour Semaine Mois Année Personnalisé
  Maximum : Minimum : Moyenne :
Température sous abri : -17.8 °C -7.9 °C -4.3 °C
Point de rosée : -17.8 °C -9.4 °C -8.2 °C
Humidité : Humidity % 37 % 67 %
Vitesse du vent : 0 km/h 0 km/h 9.3 km/h
Rafale : 0 km/h - -
Direction :- - ESE
Pression : 0 hPa 34246 hPa -
Précipitations : 0 mm    
Historical Graphs
 
 
Tableau de données pour juillet 5, 2017
Heure Tempé Pt rosée Pression Vent Vitesse Rafale Humidité Taux pluie (/hr) Soleil
-17.8 °C -17.8 °C 0 hPa Calm     Humidity % 0 mm SolarRadiationWatts/m^2 W/m2 Conditions
00:00 -5.7 °C -9.4 °C 34371.3 hPa ENE 2.6 km/h 20.8 km/h 66 % 0 mm 0 W/m2
00:10 -5.8 °C -9.3 °C 34371.3 hPa NE 7.7 km/h 18.2 km/h 67 % 0 mm 0 W/m2
00:15 -5.9 °C -9.3 °C 34371.3 hPa NE 5.1 km/h 18.2 km/h 68 % 0 mm 0 W/m2
00:20 -6.1 °C -9.4 °C 34371.3 hPa Calm   18.2 km/h 69 % 0 mm 0 W/m2
00:25 -6 °C -9.2 °C 34384.8 hPa ENE 2.6 km/h 18.2 km/h 70 % 0 mm 0 W/m2
00:30 -6.1 °C -9.1 °C 34384.8 hPa NE 2.6 km/h 12.9 km/h 71 % 0 mm 0 W/m2
00:35 -6.1 °C -9 °C 34384.8 hPa ENE 10.3 km/h 12.9 km/h 72 % 0 mm 0 W/m2
00:40 -6.1 °C -9.1 °C 34384.8 hPa NE 2.6 km/h 12.9 km/h 71 % 0 mm 0 W/m2
00:45 -6.2 °C -8.9 °C 34384.8 hPa Calm   15.6 km/h 73 % 0 mm 0 W/m2
00:50 -6.2 °C -8.9 °C 34384.8 hPa NNE 2.6 km/h 15.6 km/h 73 % 0 mm 0 W/m2
00:55 -6.2 °C -9 °C 34384.8 hPa ENE 2.6 km/h 18.2 km/h 73 % 0 mm 0 W/m2
01:00 -6.2 °C -8.9 °C 34384.8 hPa NE 7.7 km/h 18.2 km/h 74 % 0 mm 0 W/m2
01:05 -6.3 °C -8.8 °C 34384.8 hPa NE 15.6 km/h 20.8 km/h 75 % 0 mm 0 W/m2
01:10 -6.3 °C -8.9 °C 34384.8 hPa Calm   20.8 km/h 75 % 0 mm 0 W/m2
01:15 -6.3 °C -8.8 °C 34384.8 hPa ENE 2.6 km/h 25.9 km/h 76 % 0 mm 0 W/m2
01:25 -6.4 °C -8.8 °C 34371.3 hPa ENE 7.7 km/h 20.8 km/h 76 % 0 mm 0 W/m2
01:30 -6.5 °C -8.8 °C 34371.3 hPa NNE 2.6 km/h 18.2 km/h 77 % 0 mm 0 W/m2
01:35 -6.5 °C -8.7 °C 34371.3 hPa NE 2.6 km/h 15.6 km/h 78 % 0 mm 0 W/m2
01:40 -6.6 °C -8.8 °C 34371.3 hPa NE 2.6 km/h 15.6 km/h 78 % 0 mm 0 W/m2
01:45 -6.7 °C -8.8 °C 34371.3 hPa ENE 18.2 km/h 18.2 km/h 79 % 0 mm 0 W/m2
01:50 -6.7 °C -8.7 °C 34371.3 hPa ENE 2.6 km/h 23.3 km/h 80 % 0 mm 0 W/m2
01:55 -6.7 °C -8.7 °C 34371.3 hPa NNE 2.6 km/h 23.3 km/h 80 % 0 mm 0 W/m2
02:00 -6.7 °C -8.7 °C 34371.3 hPa ENE 7.7 km/h 20.8 km/h 80 % 0 mm 0 W/m2
02:05 -6.7 °C -8.7 °C 34371.3 hPa ENE 2.6 km/h 20.8 km/h 80 % 0 mm 0 W/m2
02:10 -6.8 °C -8.6 °C 34371.3 hPa ENE 7.7 km/h 18.2 km/h 81 % 0 mm 0 W/m2
02:15 -6.8 °C -8.7 °C 34371.3 hPa Calm   18.2 km/h 81 % 0 mm 0 W/m2
02:20 -6.8 °C -8.7 °C 34371.3 hPa NE 12.9 km/h 18.2 km/h 81 % 0 mm 0 W/m2
02:25 -6.9 °C -8.7 °C 34371.3 hPa Calm   18.2 km/h 82 % 0 mm 0 W/m2
02:30 -6.9 °C -8.7 °C 34371.3 hPa NE 7.7 km/h 18.2 km/h 82 % 0 mm 0 W/m2
02:35 -7 °C -8.6 °C 34371.3 hPa NE 12.9 km/h 18.2 km/h 83 % 0 mm 0 W/m2
02:40 -7 °C -8.6 °C 34371.3 hPa Calm   23.3 km/h 84 % 0 mm 0 W/m2
02:45 -7.1 °C -8.6 °C 34371.3 hPa NE 10.3 km/h 23.3 km/h 84 % 0 mm 0 W/m2
02:50 -7.1 °C -8.6 °C 34361.1 hPa NNE 5.1 km/h 20.8 km/h 85 % 0 mm 0 W/m2
02:55 -7.2 °C -8.6 °C 34361.1 hPa Calm   15.6 km/h 85 % 0 mm 0 W/m2
03:00 -7.2 °C -8.6 °C 34361.1 hPa ENE 2.6 km/h 15.6 km/h 85 % 0 mm 0 W/m2
03:05 -7.2 °C -8.5 °C 34371.3 hPa ENE 10.3 km/h 18.2 km/h 86 % 0 mm 0 W/m2
03:10 -7.3 °C -8.6 °C 34361.1 hPa ENE 7.7 km/h 18.2 km/h 86 % 0 mm 0 W/m2
03:15 -7.2 °C -8.6 °C 34361.1 hPa ENE 7.7 km/h 23.3 km/h 86 % 0 mm 0 W/m2
03:20 -7.2 °C -8.6 °C 34361.1 hPa North 5.1 km/h 23.3 km/h 85 % 0 mm 0 W/m2
03:25 -7.2 °C -8.6 °C 34361.1 hPa NE 7.7 km/h 18.2 km/h 85 % 0 mm 0 W/m2
03:30 -7.2 °C -8.6 °C 34361.1 hPa NE 7.7 km/h 20.8 km/h 85 % 0 mm 0 W/m2
03:35 -7.2 °C -8.7 °C 34361.1 hPa Calm   20.8 km/h 84 % 0 mm 0 W/m2
03:40 -7.3 °C -8.7 °C 34361.1 hPa NE 5.1 km/h 18.2 km/h 85 % 0 mm 0 W/m2
03:45 -7.3 °C -8.7 °C 34361.1 hPa NE 5.1 km/h 20.8 km/h 85 % 0 mm 0 W/m2
03:50 -7.3 °C -8.7 °C 34361.1 hPa NE 5.1 km/h 23.3 km/h 85 % 0 mm 0 W/m2
03:55 -7.3 °C -8.7 °C 34361.1 hPa Calm   23.3 km/h 85 % 0 mm 0 W/m2
04:00 -7.3 °C -8.7 °C 34361.1 hPa NNE 10.3 km/h 20.8 km/h 85 % 0 mm 0 W/m2
04:05 -7.3 °C -8.8 °C 34347.6 hPa NE 2.6 km/h 20.8 km/h 85 % 0 mm 0 W/m2
04:10 -7.3 °C -8.7 °C 34347.6 hPa NE 5.1 km/h 20.8 km/h 85 % 0 mm 0 W/m2
04:15 -7.3 °C -8.8 °C 34347.6 hPa East 2.6 km/h 20.8 km/h 85 % 0 mm 0 W/m2
04:20 -7.4 °C -8.8 °C 34347.6 hPa NE 2.6 km/h 25.9 km/h 85 % 0 mm 0 W/m2
04:25 -7.4 °C -8.9 °C 34347.6 hPa North 10.3 km/h 25.9 km/h 85 % 0 mm 0 W/m2
04:30 -7.4 °C -8.9 °C 34347.6 hPa North 12.9 km/h 25.9 km/h 85 % 0 mm 0 W/m2
04:35 -7.4 °C -8.9 °C 34347.6 hPa NNE 10.3 km/h 25.9 km/h 85 % 0 mm 0 W/m2
04:40 -7.4 °C -8.9 °C 34347.6 hPa Calm   23.3 km/h 85 % 0 mm 0 W/m2
04:45 -7.5 °C -8.9 °C 34347.6 hPa ENE 2.6 km/h 15.6 km/h 85 % 0 mm 0 W/m2
04:50 -7.6 °C -8.9 °C 34347.6 hPa NE 2.6 km/h 12.9 km/h 85 % 0 mm 0 W/m2
04:55 -7.6 °C -9 °C 34347.6 hPa Calm   20.8 km/h 85 % 0 mm 0 W/m2
05:00 -7.7 °C -9 °C 34347.6 hPa NE 5.1 km/h 20.8 km/h 86 % 0 mm 0 W/m2
05:05 -7.7 °C -9 °C 34347.6 hPa ENE 2.6 km/h 15.6 km/h 86 % 0 mm 0 W/m2
05:15 -7.9 °C -9.1 °C 34347.6 hPa NE 10.3 km/h 12.9 km/h 87 % 0 mm 0 W/m2
05:20 -7.9 °C -9.1 °C 34337.4 hPa ENE 7.7 km/h 18.2 km/h 87 % 0 mm 0 W/m2
05:25 -7.9 °C -9.1 °C 34337.4 hPa NE 5.1 km/h 23.3 km/h 87 % 0 mm 0 W/m2
05:30 -7.9 °C -9 °C 34347.6 hPa NE 2.6 km/h 23.3 km/h 88 % 0 mm 0 W/m2
05:40 -7.9 °C -9.1 °C 34337.4 hPa NE 7.7 km/h 20.8 km/h 88 % 0 mm 0 W/m2
05:45 -7.9 °C -9 °C 34337.4 hPa NE 18.2 km/h 23.3 km/h 88 % 0 mm 0 W/m2
05:50 -7.9 °C -9 °C 34337.4 hPa NE 2.6 km/h 25.9 km/h 88 % 0 mm 0 W/m2
05:55 -7.8 °C -9.1 °C 34337.4 hPa ENE 5.1 km/h 25.9 km/h 87 % 0 mm 0 W/m2
06:00 -7.8 °C -8.9 °C 34337.4 hPa ENE 7.7 km/h 20.8 km/h 88 % 0 mm 0 W/m2
06:05 -7.8 °C -8.9 °C 34327.3 hPa NE 5.1 km/h 15.6 km/h 88 % 0 mm 0 W/m2
06:10 -7.8 °C -8.9 °C 34327.3 hPa NE 2.6 km/h 20.8 km/h 88 % 0 mm 0 W/m2
06:15 -7.9 °C -9.1 °C 34327.3 hPa NE 7.7 km/h 20.8 km/h 87 % 0 mm 0 W/m2
06:20 -7.9 °C -9.1 °C 34327.3 hPa NE 5.1 km/h 20.8 km/h 87 % 0 mm 0 W/m2
06:25 -7.9 °C -9.1 °C 34337.4 hPa NE 12.9 km/h 20.8 km/h 87 % 0 mm 0 W/m2
06:30 -7.9 °C -9.1 °C 34327.3 hPa East 12.9 km/h 18.2 km/h 87 % 0 mm 5 W/m2
06:35 -7.9 °C -9.2 °C 34337.4 hPa NNE 5.1 km/h 28.5 km/h 87 % 0 mm 7 W/m2
06:40 -7.9 °C -9.1 °C 34337.4 hPa ENE 12.9 km/h 31.1 km/h 87 % 0 mm 9 W/m2
06:45 -7.9 °C -9 °C 34337.4 hPa ENE 7.7 km/h 31.1 km/h 88 % 0 mm 11 W/m2
06:50 -7.9 °C -9.1 °C 34337.4 hPa ENE 10.3 km/h 25.9 km/h 87 % 0 mm 12 W/m2
06:55 -7.9 °C -9.1 °C 34337.4 hPa NE 7.7 km/h 25.9 km/h 87 % 0 mm 14 W/m2
07:05 -7.8 °C -9.1 °C 34337.4 hPa NNE 7.7 km/h 20.8 km/h 87 % 0 mm 19 W/m2
07:15 -7.8 °C -9.1 °C 34337.4 hPa Calm   20.8 km/h 87 % 0 mm 30 W/m2
07:20 -7.8 °C -9.1 °C 34337.4 hPa ENE 12.9 km/h 18.2 km/h 87 % 0 mm 39 W/m2
07:25 -7.7 °C -8.9 °C 34337.4 hPa NE 2.6 km/h 20.8 km/h 87 % 0 mm 46 W/m2
07:30 -7.7 °C -8.9 °C 34337.4 hPa ENE 10.3 km/h 20.8 km/h 87 % 0 mm 51 W/m2
07:35 -7.6 °C -8.9 °C 34337.4 hPa NE 5.1 km/h 20.8 km/h 86 % 0 mm 58 W/m2
07:40 -7.4 °C -8.8 °C 34337.4 hPa NNE 10.3 km/h 33.6 km/h 86 % 0 mm 63 W/m2
07:45 -7.3 °C -8.8 °C 34337.4 hPa NE 5.1 km/h 33.6 km/h 85 % 0 mm 69 W/m2
07:50 -7.2 °C -8.7 °C 34327.3 hPa ENE 20.8 km/h 28.5 km/h 85 % 0 mm 74 W/m2
07:55 -7.1 °C -8.7 °C 34327.3 hPa ENE 12.9 km/h 31.1 km/h 83 % 0 mm 98 W/m2
08:00 -7 °C -8.7 °C 34327.3 hPa NE 10.3 km/h 31.1 km/h 83 % 0 mm 239 W/m2
08:05 -6.9 °C -8.6 °C 34327.3 hPa East 18.2 km/h 31.1 km/h 82 % 0 mm 253 W/m2
08:10 -6.8 °C -8.6 °C 34327.3 hPa North 5.1 km/h 25.9 km/h 82 % 0 mm 265 W/m2
08:15 -6.7 °C -8.6 °C 34327.3 hPa NE 12.9 km/h 23.3 km/h 81 % 0 mm 281 W/m2
08:20 -6.6 °C -8.6 °C 34327.3 hPa East 18.2 km/h 23.3 km/h 80 % 0 mm 278 W/m2
08:25 -6.4 °C -8.4 °C 34327.3 hPa East 2.6 km/h 23.3 km/h 80 % 0 mm 209 W/m2
08:30 -6.4 °C -8.4 °C 34337.4 hPa NE 5.1 km/h 23.3 km/h 80 % 0 mm 128 W/m2
08:35 -6.3 °C -8.3 °C 34337.4 hPa East 5.1 km/h 18.2 km/h 80 % 0 mm 309 W/m2
08:40 -6.1 °C -8.4 °C 34337.4 hPa East 10.3 km/h 25.9 km/h 77 % 0 mm 338 W/m2
08:45 -5.8 °C -8.4 °C 34337.4 hPa East 20.8 km/h 33.6 km/h 75 % 0 mm 332 W/m2
08:50 -5.7 °C -8.4 °C 34337.4 hPa East 31.1 km/h 33.6 km/h 74 % 0 mm 371 W/m2
08:55 -5.6 °C -8.4 °C 34327.3 hPa ESE 12.9 km/h 33.6 km/h 73 % 0 mm 302 W/m2
09:00 -5.6 °C -8.6 °C 34327.3 hPa ENE 10.3 km/h 33.6 km/h 72 % 0 mm 218 W/m2
09:05 -5.6 °C -8.4 °C 34327.3 hPa East 7.7 km/h 33.6 km/h 73 % 0 mm 158 W/m2
09:10 -5.6 °C -8.4 °C 34327.3 hPa East 7.7 km/h 31.1 km/h 73 % 0 mm 271 W/m2
09:15 -5.4 °C -8.4 °C 34327.3 hPa East 2.6 km/h 25.9 km/h 72 % 0 mm 309 W/m2
09:20 -5.3 °C -8.3 °C 34327.3 hPa ENE 25.9 km/h 28.5 km/h 72 % 0 mm 288 W/m2
09:25 -5.2 °C -8.3 °C 34327.3 hPa East 15.6 km/h 28.5 km/h 71 % 0 mm 264 W/m2
09:30 -5.1 °C -8.3 °C 34327.3 hPa ENE 20.8 km/h 33.6 km/h 70 % 0 mm 269 W/m2
09:35 -5.1 °C -8.3 °C 34327.3 hPa East 10.3 km/h 33.6 km/h 70 % 0 mm 281 W/m2
09:40 -5.1 °C -8.3 °C 34337.4 hPa East 7.7 km/h 25.9 km/h 70 % 0 mm 308 W/m2
09:45 -4.9 °C -8.2 °C 34327.3 hPa East 12.9 km/h 23.3 km/h 70 % 0 mm 313 W/m2
09:50 -4.8 °C -8.1 °C 34337.4 hPa ENE 12.9 km/h 23.3 km/h 69 % 0 mm 345 W/m2
09:55 -4.7 °C -8.2 °C 34327.3 hPa ESE 25.9 km/h 33.6 km/h 68 % 0 mm 287 W/m2
10:00 -4.7 °C -8.2 °C 34327.3 hPa ENE 20.8 km/h 33.6 km/h 68 % 0 mm 241 W/m2
10:05 -4.7 °C -8.2 °C 34327.3 hPa East 18.2 km/h 28.5 km/h 68 % 0 mm 223 W/m2
10:10 -4.7 °C -8.3 °C 34327.3 hPa East 12.9 km/h 33.6 km/h 67 % 0 mm 232 W/m2
10:15 -4.7 °C -8.3 °C 34327.3 hPa ESE 15.6 km/h 33.6 km/h 67 % 0 mm 232 W/m2
10:20 -4.6 °C -8.2 °C 34313.7 hPa NE 5.1 km/h 28.5 km/h 67 % 0 mm 288 W/m2
10:25 -4.4 °C -8 °C 34313.7 hPa ENE 20.8 km/h 28.5 km/h 67 % 0 mm 420 W/m2
10:30 -4.2 °C -7.8 °C 34303.6 hPa ENE 41.4 km/h 41.4 km/h 67 % 0 mm 380 W/m2
10:35 -4.1 °C -8.1 °C 34313.7 hPa ESE 18.2 km/h 41.4 km/h 65 % 0 mm 353 W/m2
10:40 -3.9 °C -7.9 °C 34313.7 hPa East 23.3 km/h 41.4 km/h 64 % 0 mm 503 W/m2
10:45 -3.9 °C -7.9 °C 34303.6 hPa East 18.2 km/h 41.4 km/h 64 % 0 mm 329 W/m2
10:55 -4 °C -8 °C 34303.6 hPa East 25.9 km/h 49.2 km/h 64 % 0 mm 376 W/m2
11:00 -3.8 °C -7.9 °C 34303.6 hPa ENE 10.3 km/h 41.4 km/h 63 % 0 mm 485 W/m2
11:05 -3.6 °C -7.9 °C 34303.6 hPa East 20.8 km/h 36.2 km/h 62 % 0 mm 350 W/m2
11:10 -3.6 °C -7.8 °C 34303.6 hPa East 15.6 km/h 33.6 km/h 63 % 0 mm 329 W/m2
11:15 -3.7 °C -8 °C 34303.6 hPa ENE 33.6 km/h 38.8 km/h 62 % 0 mm 225 W/m2
11:20 -3.8 °C -7.9 °C 34303.6 hPa ESE 18.2 km/h 38.8 km/h 63 % 0 mm 199 W/m2
11:25 -3.8 °C -8 °C 34303.6 hPa ENE 7.7 km/h 36.2 km/h 63 % 0 mm 220 W/m2
11:30 -3.7 °C -7.9 °C 34303.6 hPa ENE 7.7 km/h 38.8 km/h 63 % 0 mm 236 W/m2
11:35 -3.7 °C -7.9 °C 34313.7 hPa ESE 2.6 km/h 38.8 km/h 63 % 0 mm 237 W/m2
11:40 -3.7 °C -7.7 °C 34313.7 hPa East 7.7 km/h 38.8 km/h 64 % 0 mm 271 W/m2
11:45 -3.5 °C -7.7 °C 34313.7 hPa East 15.6 km/h 36.2 km/h 63 % 0 mm 313 W/m2
11:50 -3.4 °C -7.6 °C 34313.7 hPa ENE 20.8 km/h 36.2 km/h 63 % 0 mm 336 W/m2
11:55 -3.2 °C -7.6 °C 34313.7 hPa East 7.7 km/h 28.5 km/h 62 % 0 mm 431 W/m2
12:00 -2.9 °C -7.4 °C 34313.7 hPa East 18.2 km/h 28.5 km/h 61 % 0 mm 587 W/m2
12:05 -2.6 °C -7.3 °C 34327.3 hPa East 5.1 km/h 23.3 km/h 60 % 0 mm 606 W/m2
12:10 -2.2 °C -7.1 °C 34327.3 hPa ESE 5.1 km/h 25.9 km/h 59 % 0 mm 854 W/m2
12:15 -1.7 °C -7.3 °C 34327.3 hPa ESE 20.8 km/h 25.9 km/h 55 % 0 mm 914 W/m2
12:20 -1.5 °C -6.9 °C 34327.3 hPa ESE 10.3 km/h 28.5 km/h 56 % 0 mm 940 W/m2
12:25 -1.3 °C -7.4 °C 34327.3 hPa SE 7.7 km/h 28.5 km/h 52 % 0 mm 882 W/m2
12:30 -1.5 °C -7.7 °C 34327.3 hPa ESE 20.8 km/h 25.9 km/h 51 % 0 mm 464 W/m2
12:35 -1.7 °C -7.7 °C 34327.3 hPa East 5.1 km/h 25.9 km/h 52 % 0 mm 485 W/m2
12:40 -1.8 °C -7.8 °C 34313.7 hPa ENE 23.3 km/h 25.9 km/h 52 % 0 mm 496 W/m2
12:45 -1.9 °C -7.8 °C 34313.7 hPa SE 2.6 km/h 25.9 km/h 53 % 0 mm 417 W/m2
12:50 -1.8 °C -7.7 °C 34313.7 hPa ESE 20.8 km/h 25.9 km/h 53 % 0 mm 441 W/m2
12:55 -1.4 °C -7.7 °C 34313.7 hPa SE 12.9 km/h 23.3 km/h 51 % 0 mm 417 W/m2
13:00 -1.4 °C -7.7 °C 34313.7 hPa SE 12.9 km/h 23.3 km/h 51 % 0 mm 390 W/m2
13:05 -1.2 °C -7.8 °C 34327.3 hPa ESE 7.7 km/h 25.9 km/h 49 % 0 mm 390 W/m2
13:10 -0.7 °C -7.1 °C 34313.7 hPa SSE 12.9 km/h 25.9 km/h 50 % 0 mm 1086 W/m2
13:15 -0.8 °C -7.8 °C 34313.7 hPa South 15.6 km/h 25.9 km/h 47 % 0 mm 334 W/m2
13:20 -0.7 °C -7.4 °C 34313.7 hPa ENE 18.2 km/h 25.9 km/h 49 % 0 mm 881 W/m2
13:25 -0.9 °C -7.4 °C 34303.6 hPa East 33.6 km/h 33.6 km/h 50 % 0 mm 323 W/m2
13:30 -1.4 °C -7.6 °C 34293.4 hPa ENE 10.3 km/h 33.6 km/h 51 % 0 mm 269 W/m2
13:35 -1.6 °C -7.6 °C 34293.4 hPa ENE 7.7 km/h 36.2 km/h 52 % 0 mm 257 W/m2
13:40 -1.7 °C -7.8 °C 34293.4 hPa ENE 18.2 km/h 36.2 km/h 52 % 0 mm 301 W/m2
13:45 -1.7 °C -7.7 °C 34293.4 hPa East 7.7 km/h 31.1 km/h 52 % 0 mm 359 W/m2
13:50 -1.6 °C -7.6 °C 34279.9 hPa East 5.1 km/h 33.6 km/h 52 % 0 mm 396 W/m2
13:55 -1.4 °C -7.5 °C 34293.4 hPa Calm   33.6 km/h 52 % 0 mm 483 W/m2
14:00 -1.3 °C -7.2 °C 34303.6 hPa Calm   25.9 km/h 53 % 0 mm 487 W/m2
14:05 -0.8 °C -7.4 °C 34303.6 hPa SSE 18.2 km/h 20.8 km/h 49 % 0 mm 865 W/m2
14:10 -0.5 °C -7 °C 34303.6 hPa East 7.7 km/h 20.8 km/h 50 % 0 mm 997 W/m2
14:15 0.1 °C -7.2 °C 34303.6 hPa ESE 12.9 km/h 25.9 km/h 46 % 0 mm 1072 W/m2
14:20 0.1 °C -7.4 °C 34303.6 hPa SE 5.1 km/h 25.9 km/h 45 % 0 mm 1011 W/m2
14:25 -0.1 °C -7.6 °C 34293.4 hPa ESE 12.9 km/h 28.5 km/h 45 % 0 mm 940 W/m2
14:30 0.3 °C -7.2 °C 34293.4 hPa ESE 18.2 km/h 28.5 km/h 45 % 0 mm 905 W/m2
14:35 0.2 °C -7.5 °C 34293.4 hPa ESE 7.7 km/h 28.5 km/h 44 % 0 mm 891 W/m2
14:40 0.2 °C -7.5 °C 34293.4 hPa SSE 10.3 km/h 25.9 km/h 44 % 0 mm 879 W/m2
14:45 0.3 °C -7.4 °C 34293.4 hPa ESE 18.2 km/h 28.5 km/h 44 % 0 mm 881 W/m2
14:50 0.3 °C -7.6 °C 34293.4 hPa ESE 10.3 km/h 28.5 km/h 43 % 0 mm 875 W/m2
14:55 0.4 °C -7.9 °C 34293.4 hPa SSE 12.9 km/h 28.5 km/h 41 % 0 mm 788 W/m2
15:00 0.3 °C -7.8 °C 34293.4 hPa South 18.2 km/h 28.5 km/h 42 % 0 mm 867 W/m2
15:05 0.3 °C -8 °C 34293.4 hPa SSE 15.6 km/h 28.5 km/h 41 % 0 mm 840 W/m2
15:10 0.6 °C -7.8 °C 34279.9 hPa SSE 10.3 km/h 28.5 km/h 41 % 0 mm 853 W/m2
15:15 0.5 °C -7.8 °C 34279.9 hPa SE 25.9 km/h 25.9 km/h 41 % 0 mm 853 W/m2
15:20 0.5 °C -7.8 °C 34279.9 hPa ESE 7.7 km/h 25.9 km/h 41 % 0 mm 846 W/m2
15:25 0.8 °C -7.3 °C 34269.7 hPa ESE 18.2 km/h 25.9 km/h 42 % 0 mm 881 W/m2
15:30 0.9 °C -7.9 °C 34279.9 hPa SSE 20.8 km/h 23.3 km/h 39 % 0 mm 900 W/m2
15:35 0.9 °C -7.7 °C 34279.9 hPa ESE 20.8 km/h 33.6 km/h 40 % 0 mm 831 W/m2
15:40 0.9 °C -7.7 °C 34279.9 hPa South 7.7 km/h 33.6 km/h 40 % 0 mm 819 W/m2
15:45 1.1 °C -7.6 °C 34279.9 hPa ESE 23.3 km/h 33.6 km/h 40 % 0 mm 812 W/m2
15:50 0.9 °C -7.7 °C 34279.9 hPa SE 18.2 km/h 33.6 km/h 40 % 0 mm 821 W/m2
15:55 0.9 °C -7.7 °C 34279.9 hPa SE 23.3 km/h 33.6 km/h 40 % 0 mm 858 W/m2
16:00 0.8 °C -7.3 °C 34279.9 hPa East 7.7 km/h 33.6 km/h 42 % 0 mm 867 W/m2
16:05 1.1 °C -7.6 °C 34269.7 hPa SSE 12.9 km/h 33.6 km/h 40 % 0 mm 796 W/m2
16:10 1.2 °C -7.7 °C 34269.7 hPa SSE 12.9 km/h 33.6 km/h 39 % 0 mm 775 W/m2
16:15 1 °C -8.3 °C 34269.7 hPa SSE 12.9 km/h 31.1 km/h 37 % 0 mm 768 W/m2
16:20 0.8 °C -8.2 °C 34269.7 hPa SSW 12.9 km/h 36.2 km/h 38 % 0 mm 765 W/m2
16:25 0.9 °C -7.9 °C 34269.7 hPa South 23.3 km/h 36.2 km/h 39 % 0 mm 756 W/m2
16:30 0.9 °C -8.1 °C 34269.7 hPa South 7.7 km/h 25.9 km/h 38 % 0 mm 737 W/m2
16:35 0.8 °C -8 °C 34269.7 hPa SE 25.9 km/h 38.8 km/h 39 % 0 mm 722 W/m2
16:40 1.1 °C -7.8 °C 34256.2 hPa SE 12.9 km/h 38.8 km/h 39 % 0 mm 721 W/m2
16:45 1.2 °C -7.9 °C 34269.7 hPa SE 20.8 km/h 31.1 km/h 38 % 0 mm 726 W/m2
16:50 1.2 °C -7.9 °C 34269.7 hPa SW 7.7 km/h 28.5 km/h 38 % 0 mm 714 W/m2
16:55 1.3 °C -7.5 °C 34256.2 hPa SE 7.7 km/h 28.5 km/h 39 % 0 mm 701 W/m2
17:00 1.3 °C -8.1 °C 34256.2 hPa ESE 20.8 km/h 33.6 km/h 37 % 0 mm 682 W/m2
17:05 1.4 °C -7.9 °C 34256.2 hPa East 25.9 km/h 33.6 km/h 37 % 0 mm 680 W/m2
17:10 1.4 °C -7.7 °C 34256.2 hPa East 2.6 km/h 25.9 km/h 38 % 0 mm 603 W/m2
17:15 1.4 °C -7.7 °C 34256.2 hPa ESE 12.9 km/h 25.9 km/h 38 % 0 mm 599 W/m2
17:20 1.2 °C -7.9 °C 34256.2 hPa ESE 18.2 km/h 25.9 km/h 38 % 0 mm 642 W/m2
17:25 1.3 °C -7.6 °C 34256.2 hPa SSW 15.6 km/h 25.9 km/h 39 % 0 mm 633 W/m2
17:30 1.2 °C -7.8 °C 34246 hPa East 15.6 km/h 23.3 km/h 38 % 0 mm 617 W/m2
17:35 1.3 °C -7.8 °C 34246 hPa SSE 5.1 km/h 23.3 km/h 38 % 0 mm 610 W/m2
17:40 1.3 °C -8 °C 34246 hPa SSE 5.1 km/h 23.3 km/h 37 % 0 mm 591 W/m2
17:45 1.3 °C -7.8 °C 34246 hPa SE 2.6 km/h 15.6 km/h 38 % 0 mm 575 W/m2
17:50 1.5 °C -7.6 °C 34246 hPa ESE 5.1 km/h 18.2 km/h 38 % 0 mm 573 W/m2
17:55 1.6 °C -7.8 °C 34246 hPa SSE 15.6 km/h 20.8 km/h 37 % 0 mm 557 W/m2
18:00 1.2 °C -7.7 °C 34246 hPa WNW 10.3 km/h 25.9 km/h 39 % 0 mm 547 W/m2
18:05 0.6 °C -7.8 °C 34256.2 hPa WSW 18.2 km/h 28.5 km/h 41 % 0 mm 538 W/m2
18:10 -0.2 °C -7.8 °C 34256.2 hPa WSW 2.6 km/h 28.5 km/h 44 % 0 mm 538 W/m2
18:15 -0.8 °C -7.8 °C 34256.2 hPa SW 12.9 km/h 31.1 km/h 47 % 0 mm 545 W/m2
18:20 -1.3 °C -7.7 °C 34256.2 hPa WNW 18.2 km/h 33.6 km/h 50 % 0 mm 596 W/m2
18:25 -1.4 °C -7.7 °C 34269.7 hPa SW 15.6 km/h 36.2 km/h 51 % 0 mm 610 W/m2
18:30 -1.7 °C -7.7 °C 34269.7 hPa West 7.7 km/h 36.2 km/h 52 % 0 mm 316 W/m2
18:35 -1.7 °C -7.7 °C 34269.7 hPa WSW 15.6 km/h 36.2 km/h 52 % 0 mm 520 W/m2
18:40 -1.8 °C -7.4 °C 34269.7 hPa WSW 18.2 km/h 36.2 km/h 55 % 0 mm 392 W/m2
18:45 -1.7 °C -7.6 °C 34256.2 hPa West 2.6 km/h 28.5 km/h 53 % 0 mm 425 W/m2
18:50 -2.1 °C -7.6 °C 34269.7 hPa West 12.9 km/h 25.9 km/h 55 % 0 mm 503 W/m2
18:55 -2.2 °C -7.5 °C 34269.7 hPa SW 10.3 km/h 25.9 km/h 56 % 0 mm 490 W/m2
19:00 -2.2 °C -7.5 °C 34269.7 hPa WNW 10.3 km/h 33.6 km/h 56 % 0 mm 459 W/m2
19:05 -2.4 °C -7.4 °C 34269.7 hPa WSW 20.8 km/h 33.6 km/h 58 % 0 mm 468 W/m2
19:10 -2.3 °C -7.7 °C 34269.7 hPa WSW 15.6 km/h 33.6 km/h 56 % 0 mm 457 W/m2
19:15 -2.1 °C -7.4 °C 34269.7 hPa WNW 10.3 km/h 33.6 km/h 56 % 0 mm 381 W/m2
19:20 -2.3 °C -7.3 °C 34269.7 hPa SW 10.3 km/h 31.1 km/h 58 % 0 mm 401 W/m2
19:25 -2.3 °C -7.3 °C 34269.7 hPa West 7.7 km/h 28.5 km/h 58 % 0 mm 348 W/m2
19:30 -2.3 °C -7.3 °C 34269.7 hPa West 12.9 km/h 23.3 km/h 58 % 0 mm 309 W/m2
19:35 -2.7 °C -7.5 °C 34269.7 hPa West 5.1 km/h 20.8 km/h 59 % 0 mm 290 W/m2
19:40 -2.7 °C -7.4 °C 34269.7 hPa WSW 5.1 km/h 20.8 km/h 60 % 0 mm 272 W/m2
19:45 -2.9 °C -7.6 °C 34269.7 hPa WSW 7.7 km/h 20.8 km/h 60 % 0 mm 250 W/m2
19:50 -3 °C -7.6 °C 34269.7 hPa WSW 12.9 km/h 25.9 km/h 61 % 0 mm 225 W/m2
19:55 -3.2 °C -7.6 °C 34269.7 hPa WSW 2.6 km/h 25.9 km/h 62 % 0 mm 209 W/m2
20:00 -3.2 °C -7.6 °C 34269.7 hPa WSW 7.7 km/h 18.2 km/h 62 % 0 mm 193 W/m2
20:05 -3.3 °C -7.7 °C 34269.7 hPa WSW 15.6 km/h 28.5 km/h 62 % 0 mm 179 W/m2
20:10 -3.4 °C -7.5 °C 34269.7 hPa WNW 10.3 km/h 28.5 km/h 64 % 0 mm 163 W/m2
20:15 -3.5 °C -7.7 °C 34269.7 hPa WSW 10.3 km/h 23.3 km/h 63 % 0 mm 128 W/m2
20:20 -3.7 °C -7.7 °C 34279.9 hPa WSW 2.6 km/h 23.3 km/h 64 % 0 mm 144 W/m2
20:25 -3.8 °C -7.7 °C 34279.9 hPa SW 10.3 km/h 20.8 km/h 65 % 0 mm 120 W/m2
20:30 -3.9 °C -7.6 °C 34279.9 hPa West 10.3 km/h 18.2 km/h 67 % 0 mm 105 W/m2
20:35 -4 °C -7.7 °C 34279.9 hPa WNW 7.7 km/h 18.2 km/h 67 % 0 mm 60 W/m2
20:40 -4.2 °C -7.4 °C 34279.9 hPa WNW 5.1 km/h 18.2 km/h 70 % 0 mm 44 W/m2
20:45 -4.3 °C -7.4 °C 34279.9 hPa SW 15.6 km/h 15.6 km/h 71 % 0 mm 42 W/m2
20:55 -4.6 °C -7.6 °C 34279.9 hPa Calm   15.6 km/h 72 % 0 mm 40 W/m2
21:00 -4.7 °C -7.5 °C 34279.9 hPa West 5.1 km/h 12.9 km/h 73 % 0 mm 44 W/m2
21:05 -4.7 °C -7.4 °C 34279.9 hPa Calm   12.9 km/h 74 % 0 mm 35 W/m2
21:10 -4.8 °C -7.5 °C 34279.9 hPa West 5.1 km/h 15.6 km/h 74 % 0 mm 26 W/m2
21:15 -4.8 °C -7.6 °C 34279.9 hPa West 7.7 km/h 15.6 km/h 74 % 0 mm 23 W/m2
21:20 -4.9 °C -7.5 °C 34279.9 hPa West 10.3 km/h 15.6 km/h 75 % 0 mm 18 W/m2
21:25 -5 °C -7.6 °C 34279.9 hPa WNW 5.1 km/h 12.9 km/h 75 % 0 mm 18 W/m2
21:30 -5.1 °C -7.7 °C 34279.9 hPa WNW 2.6 km/h 12.9 km/h 75 % 0 mm 16 W/m2
21:35 -5.2 °C -7.7 °C 34293.4 hPa Calm   10.3 km/h 76 % 0 mm 14 W/m2
21:40 -5.4 °C -7.7 °C 34293.4 hPa Calm   5.1 km/h 78 % 0 mm 12 W/m2
21:45 -5.7 °C -7.8 °C 34293.4 hPa WNW 2.6 km/h 5.1 km/h 79 % 0 mm 11 W/m2
21:50 -5.8 °C -7.8 °C 34293.4 hPa Calm   5.1 km/h 80 % 0 mm 9 W/m2
21:55 -5.9 °C -7.8 °C 34293.4 hPa Calm   2.6 km/h 81 % 0 mm 7 W/m2
22:00 -6 °C -7.8 °C 34293.4 hPa Calm     82 % 0 mm 0 W/m2
22:05 -6.1 °C -7.7 °C 34293.4 hPa Calm     83 % 0 mm 0 W/m2
22:10 -6.2 °C -7.8 °C 34293.4 hPa Calm     83 % 0 mm 0 W/m2
22:15 -6.3 °C -7.8 °C 34293.4 hPa Calm     84 % 0 mm 0 W/m2
22:20 -6.4 °C -7.9 °C 34293.4 hPa Calm     85 % 0 mm 0 W/m2
22:25 -6.5 °C -7.9 °C 34303.6 hPa Calm     85 % 0 mm 0 W/m2
22:30 -6.6 °C -7.9 °C 34303.6 hPa Calm     86 % 0 mm 0 W/m2
22:35 -6.7 °C -8 °C 34303.6 hPa Calm     86 % 0 mm 0 W/m2
22:40 -6.7 °C -8.1 °C 34303.6 hPa Calm     86 % 0 mm 0 W/m2
22:45 -6.7 °C -7.9 °C 34293.4 hPa WNW 5.1 km/h 5.1 km/h 87 % 0 mm 0 W/m2
22:50 -6.7 °C -7.9 °C 34303.6 hPa NW 7.7 km/h 7.7 km/h 87 % 0 mm 0 W/m2
22:55 -6.4 °C -7.9 °C 34313.7 hPa Calm   10.3 km/h 85 % 0 mm 0 W/m2
23:00 -6.5 °C -7.9 °C 34303.6 hPa West 2.6 km/h 10.3 km/h 85 % 0 mm 0 W/m2
23:05 -6.6 °C -8 °C 34303.6 hPa Calm   5.1 km/h 85 % 0 mm 0 W/m2
23:10 -6.6 °C -8 °C 34313.7 hPa Calm     85 % 0 mm 0 W/m2
23:15 -6.6 °C -8 °C 34303.6 hPa Calm     85 % 0 mm 0 W/m2
23:20 -6.6 °C -7.9 °C 34303.6 hPa Calm     86 % 0 mm 0 W/m2
23:25 -6.3 °C -7.9 °C 34303.6 hPa Calm   7.7 km/h 84 % 0 mm 0 W/m2
23:30 -6.1 °C -7.8 °C 34303.6 hPa Calm   7.7 km/h 82 % 0 mm 0 W/m2
23:35 -6.2 °C -7.9 °C 34313.7 hPa Calm   7.7 km/h 82 % 0 mm 0 W/m2
23:40 -6.3 °C -8.1 °C 34313.7 hPa Calm   7.7 km/h 82 % 0 mm 0 W/m2
23:45 -6.5 °C -8.1 °C 34313.7 hPa SW 2.6 km/h 7.7 km/h 84 % 0 mm 0 W/m2
23:50 -6.7 °C -8.1 °C 34313.7 hPa Calm   2.6 km/h 85 % 0 mm 0 W/m2
23:55 -6.8 °C -8.1 °C 34313.7 hPa Calm     86 % 0 mm 0 W/m2
Avec l'autorisation de Weather Underground - 1.75 mb